Wind_Speed
28 30 33 34 33 33 33 34 34 35 36 36 37 37 36 36 37 37 36 36 37 38 38 39 37 37 37 37 34 35 37 41 51 54 50 42 44 51 54 60 62 72 56
29 31 34 34 32 32 33 33 34 34 35 35 35 35 36 36 37 37 37 37 37 38 37 38 38 38 36 37 36 36 39 39 46 54 53 50 43 47 49 57 58 60 52
30 32 33 31 31 31 32 32 32 33 34 35 36 36 36 36 37 37 37 37 37 37 38 38 38 39 37 38 39 39 40 41 42 48 53 49 44 44 49 52 56 61 42
31 32 31 30 31 31 31 31 31 33 35 35 36 36 36 36 36 37 37 37 37 37 37 38 38 39 38 37 38 39 40 42 42 44 47 48 46 43 47 49 55 57 51
30 30 29 29 30 30 30 31 33 34 35 36 36 35 36 36 36 37 38 39 39 38 37 37 37 37 37 38 39 37 39 41 43 44 43 44 43 44 46 48 55 53 54
29 27 27 28 29 29 30 32 33 34 35 34 35 36 37 40 40 41 43 43 42 43 41 38 37 37 36 36 36 37 38 39 42 43 40 41 41 45 48 49 58 53 55
26 26 27 28 27 29 31 32 33 32 33 36 38 38 39 41 43 43 45 46 46 46 45 43 39 37 38 37 35 36 34 34 40 43 43 42 45 43 49 50 58 57 51
25 26 26 26 28 30 31 31 30 32 34 36 38 40 42 43 46 45 46 46 45 44 44 44 42 39 36 38 35 35 34 33 36 37 39 42 40 33 41 47 54 62 53
24 25 26 27 28 30 29 30 32 33 35 37 38 40 42 42 42 41 43 44 45 44 41 41 42 40 36 35 35 34 34 31 31 32 33 35 34 31 28 37 50 63 50
24 24 26 27 28 27 29 30 33 34 35 37 37 37 39 40 40 38 40 43 44 43 42 38 37 38 36 35 34 34 35 31 28 29 23 28 28 23 30 35 44 55 51
23 25 26 26 25 26 28 31 33 34 35 35 35 34 36 37 38 38 38 40 43 44 41 40 35 36 34 33 31 30 32 31 26 30 27 21 18 21 25 31 39 53 42
23 24 25 24 24 26 28 30 32 33 34 35 36 36 36 37 38 38 38 39 40 41 40 36 35 33 32 31 29 26 27 26 27 28 28 23 15 13 19 26 36 49 36
23 24 23 23 24 26 27 29 31 32 34 36 38 39 38 37 38 38 38 39 38 38 36 34 32 30 29 28 26 24 24 26 24 22 26 23 15 9 14 20 20 26 31
23 22 22 22 24 26 28 29 31 33 35 37 38 39 39 39 39 39 39 39 38 37 35 32 30 27 26 25 24 23 22 23 24 19 20 23 17 11 11 8 13 23 29
22 21 20 22 24 27 28 29 31 34 36 37 39 40 41 40 39 39 40 40 39 38 36 32 29 26 24 23 20 20 20 19 19 18 16 21 17 9 8 8 9 15 23
21 20 21 22 24 25 27 29 33 35 35 35 35 37 37 37 37 37 37 37 37 36 34 32 29 27 25 23 21 18 18 16 17 16 16 13 16 14 6 3 4 12 15
19 20 21 22 24 25 27 29 31 31 33 35 35 34 35 36 35 35 35 35 35 35 33 30 28 27 25 22 22 19 19 17 15 16 15 13 11 15 12 6 4 8 12
19 19 20 22 23 25 27 30 32 35 37 35 33 34 33 34 34 34 34 33 32 31 31 30 27 26 25 23 21 20 17 17 15 14 13 13 10 8 10 9 5 5 9
19 19 20 21 22 25 27 30 33 35 37 37 35 33 32 32 32 32 32 33 32 32 31 29 27 25 24 23 22 21 19 17 17 15 13 12 11 10 7 6 6 8 10
18 20 21 22 23 25 28 30 33 35 36 36 35 34 34 33 32 31 31 31 31 31 30 29 28 26 24 23 22 20 19 18 16 15 14 12 11 9 9 7 5 6 9
19 20 21 22 23 25 28 30 33 35 36 36 34 33 32 33 33 33 32 31 31 30 29 29 28 27 25 23 22 20 18 18 17 16 15 14 12 9 9 8 6 5 6
20 21 21 22 24 26 28 31 33 35 36 35 33 32 32 32 33 32 32 31 30 29 29 28 28 27 26 24 23 21 20 18 16 15 14 14 13 12 10 8 8 7 6
21 22 22 23 25 27 29 32 34 35 35 34 33 32 32 33 34 33 32 31 29 28 28 27 27 26 25 24 23 22 21 19 17 16 14 13 12 12 11 10 9 8 7
22 22 23 24 25 27 29 31 33 35 35 34 33 32 32 34 36 35 33 31 29 28 27 26 26 26 25 24 23 22 21 20 19 17 15 14 12 11 11 11 11 10 8
23 23 24 25 26 28 30 32 34 36 35 34 33 33 34 36 38 36 33 31 30 28 27 26 25 25 24 24 23 22 21 20 20 19 17 15 14 12 11 11 10 11 10
24 24 25 26 27 28 30 32 35 36 35 34 34 35 36 39 39 36 33 31 29 28 27 26 24 24 24 24 23 22 21 20 19 18 18 16 14 13 12 11 11 10 11
Wind_Direction
296 304 312 313 313 315 315 316 317 317 316 316 315 314 314 314 313 312 312 312 311 310 305 301 300 301 301 305 300 293 288 285 285 285 284 272 255 247 243 239 237 235 249
295 306 312 311 313 315 315 317 316 316 316 316 316 316 317 316 315 315 316 315 314 313 311 307 303 301 299 298 301 302 294 289 285 285 283 277 266 252 245 241 233 235 247
298 306 309 310 312 314 314 314 315 315 316 317 318 318 318 317 317 318 317 317 316 314 314 312 308 303 302 298 298 300 303 292 286 286 285 281 269 259 249 240 229 228 234
299 305 308 309 311 312 311 313 316 317 317 318 319 320 319 319 319 318 318 318 316 315 313 312 311 307 304 300 298 297 302 298 291 289 284 279 272 261 254 241 228 227 227
300 304 307 309 309 310 313 316 317 317 317 318 318 319 319 319 319 318 317 317 316 315 314 312 310 309 306 303 300 300 295 303 300 296 287 276 273 262 252 237 229 225 221
300 303 305 306 308 312 314 315 315 317 317 317 318 318 317 315 316 315 313 313 313 312 312 311 309 308 307 303 301 301 301 303 304 299 293 281 276 265 251 243 230 228 231
299 302 303 305 309 312 312 314 316 316 316 316 316 317 316 314 314 313 309 308 308 308 308 308 307 306 307 305 304 302 301 298 303 301 294 287 282 267 250 244 230 228 222
298 300 302 305 309 310 312 314 314 316 317 318 319 319 318 319 316 316 314 312 310 309 307 306 306 305 304 305 307 304 302 300 302 300 292 287 281 260 250 247 228 224 233
296 298 302 306 309 312 313 315 316 318 319 319 320 320 319 320 320 319 317 316 315 315 313 310 307 305 304 303 306 305 302 301 301 302 291 287 269 258 249 242 233 230 239
294 298 303 306 310 312 315 317 319 319 320 320 322 323 323 325 326 326 323 321 318 316 315 313 309 307 306 305 305 306 304 305 298 309 297 279 266 260 254 246 232 235 231
294 299 303 307 310 314 318 319 318 319 321 321 324 326 326 328 329 329 327 324 321 320 319 316 312 308 306 305 307 308 308 309 308 313 313 295 268 251 241 243 247 232 223
295 300 303 305 311 317 318 318 319 321 323 325 327 329 332 332 331 330 329 328 325 323 322 319 315 311 309 307 309 311 311 313 315 311 315 307 285 263 239 226 222 220 211
297 300 301 307 314 316 317 319 321 324 327 330 331 332 334 334 333 332 330 328 327 326 325 322 317 312 309 307 310 316 316 316 316 308 311 307 302 255 238 216 186 194 213
297 298 302 310 313 315 318 323 327 330 332 332 333 333 333 335 334 333 331 330 329 329 328 325 321 318 315 313 314 315 316 317 320 318 301 313 302 287 239 216 183 189 194
296 297 305 311 313 316 321 327 332 334 335 334 334 333 333 334 334 334 333 332 332 332 330 329 325 322 320 316 317 316 316 314 317 321 315 305 310 303 266 220 196 205 195
296 302 308 311 313 318 325 330 334 336 336 335 334 332 332 331 332 333 333 332 332 332 332 333 331 328 327 325 325 323 322 320 318 321 327 315 314 309 299 226 202 205 204
297 301 305 309 315 321 327 331 334 336 336 336 335 333 330 330 332 333 333 333 334 333 333 334 333 331 330 330 330 331 328 329 328 326 325 326 319 319 298 263 191 204 205
290 296 302 309 317 323 328 332 335 337 338 338 336 333 332 331 331 332 333 334 335 335 335 335 335 334 332 332 330 333 332 330 330 327 326 324 327 313 299 299 270 208 199
288 296 303 310 318 323 327 332 336 337 338 337 335 334 333 331 331 333 333 335 337 338 338 337 336 335 334 332 331 331 332 332 332 331 329 327 327 321 309 297 276 235 225
291 298 304 313 320 324 328 332 335 337 337 336 334 334 333 333 333 333 334 334 337 338 338 338 337 336 335 333 331 330 329 329 328 327 327 326 326 320 318 311 270 245 230
291 297 304 312 318 323 326 330 334 336 336 335 334 333 333 332 333 333 333 333 333 336 337 338 338 336 335 334 332 330 329 328 328 327 324 322 320 314 313 309 301 282 244
291 297 304 311 316 321 326 330 333 335 335 334 333 333 333 333 332 331 330 329 329 331 334 335 337 337 335 333 332 330 329 328 325 324 323 319 317 315 310 300 292 280 261
290 296 303 310 316 321 325 329 332 334 334 332 331 331 331 332 332 330 327 325 325 325 327 332 333 335 335 332 331 330 328 327 326 323 319 316 311 307 303 296 286 277 267
289 295 302 309 315 320 323 327 330 332 332 330 329 328 328 330 330 328 326 323 321 320 320 324 328 330 332 331 328 327 327 325 324 324 321 317 312 307 300 296 290 282 268
289 295 302 308 313 318 323 327 330 330 330 327 326 326 326 327 327 325 322 320 318 317 316 315 319 323 326 328 327 324 323 322 321 320 319 316 313 309 303 295 287 283 277
289 295 301 307 312 318 323 326 328 329 327 325 324 324 324 325 325 323 320 317 315 314 313 312 310 315 319 321 323 322 320 318 315 314 314 312 310 306 302 298 292 284 279
Height
3057 3054 3051 3047 3043 3039 3036 3031 3027 3023 3018 3013 3009 3004 2999 2993 2988 2982 2978 2972 2966 2960 2955 2949 2945 2940 2936 2932 2927 2923 2918 2914 2902 2898 2900 2903 2904 2908 2913 2917 2924 2933 2936
3051 3049 3044 3041 3038 3031 3029 3025 3021 3016 3012 3007 3002 2997 2992 2986 2980 2975 2970 2964 2958 2953 2947 2942 2936 2930 2927 2923 2918 2914 2909 2904 2896 2886 2886 2888 2891 2892 2895 2899 2909 2918 2922
3043 3040 3037 3035 3031 3027 3023 3020 3015 3011 3006 3001 2996 2990 2985 2979 2973 2968 2962 2956 2951 2945 2939 2933 2928 2922 2917 2913 2908 2903 2898 2892 2887 2878 2872 2875 2878 2880 2879 2885 2892 2903 2910
3036 3034 3031 3028 3025 3021 3017 3013 3009 3004 2999 2994 2989 2983 2978 2972 2967 2961 2955 2950 2944 2938 2932 2926 2920 2914 2908 2903 2898 2893 2887 2880 2875 2869 2864 2860 2864 2867 2866 2872 2879 2889 2896
3031 3028 3024 3021 3018 3014 3010 3006 3002 2998 2993 2987 2982 2977 2971 2965 2960 2954 2948 2942 2936 2931 2925 2919 2913 2907 2900 2894 2888 2884 2878 2870 2864 2858 2853 2850 2851 2853 2856 2861 2864 2875 2881
3025 3021 3019 3015 3011 3007 3004 3000 2996 2991 2986 2981 2976 2971 2965 2958 2953 2946 2940 2934 2928 2921 2915 2911 2905 2899 2893 2887 2881 2874 2868 2860 2854 2847 2842 2838 2839 2840 2842 2846 2853 2860 2867
3019 3016 3013 3010 3005 3002 2998 2994 2990 2985 2980 2975 2969 2963 2957 2950 2943 2937 2930 2924 2918 2911 2905 2899 2895 2889 2882 2877 2872 2867 2861 2855 2846 2838 2831 2828 2825 2827 2829 2833 2841 2850 2856
3013 3010 3007 3004 3000 2996 2992 2988 2984 2979 2974 2968 2961 2955 2948 2941 2933 2927 2919 2913 2907 2901 2895 2889 2883 2879 2873 2866 2862 2857 2852 2846 2840 2832 2824 2818 2815 2816 2817 2821 2831 2839 2844
3007 3005 3001 2998 2994 2990 2986 2982 2978 2973 2967 2961 2955 2947 2940 2934 2925 2918 2910 2903 2896 2891 2886 2880 2873 2868 2864 2858 2852 2847 2842 2839 2832 2823 2816 2809 2808 2806 2805 2811 2819 2826 2834
3001 2999 2996 2992 2988 2984 2980 2976 2971 2966 2961 2955 2948 2941 2933 2925 2917 2911 2902 2894 2887 2882 2877 2872 2866 2859 2854 2849 2843 2837 2831 2829 2822 2816 2810 2805 2800 2796 2798 2801 2807 2817 2823
2995 2993 2989 2985 2982 2978 2974 2970 2965 2960 2954 2948 2941 2935 2927 2919 2911 2904 2896 2888 2879 2872 2867 2861 2858 2851 2846 2842 2836 2830 2822 2818 2814 2807 2801 2798 2794 2791 2791 2791 2796 2807 2810
2989 2986 2983 2980 2976 2972 2969 2965 2960 2954 2947 2940 2933 2926 2919 2911 2904 2897 2890 2883 2875 2866 2859 2854 2848 2844 2839 2834 2830 2825 2817 2812 2806 2801 2796 2791 2785 2783 2782 2786 2789 2795 2800
2983 2980 2977 2974 2970 2967 2963 2959 2954 2947 2940 2932 2925 2917 2911 2904 2897 2890 2883 2876 2870 2862 2855 2848 2842 2837 2832 2827 2823 2819 2813 2806 2802 2797 2792 2786 2783 2780 2779 2780 2780 2784 2788
2977 2974 2971 2968 2965 2962 2958 2953 2946 2940 2933 2926 2918 2911 2904 2897 2890 2883 2876 2869 2863 2857 2850 2843 2837 2832 2826 2821 2817 2814 2810 2803 2797 2793 2789 2785 2780 2778 2780 2777 2776 2781 2787
2971 2969 2965 2963 2960 2956 2951 2947 2940 2933 2927 2919 2911 2904 2897 2891 2884 2877 2869 2862 2856 2850 2843 2838 2832 2827 2822 2817 2813 2809 2806 2801 2797 2792 2789 2784 2781 2779 2778 2777 2774 2778 2781
2966 2963 2960 2958 2955 2951 2946 2940 2933 2928 2922 2915 2908 2900 2893 2887 2880 2873 2866 2859 2852 2846 2840 2834 2828 2822 2818 2813 2808 2805 2801 2798 2793 2789 2786 2784 2781 2779 2777 2775 2775 2779 2782
2960 2958 2955 2952 2949 2945 2940 2935 2930 2924 2917 2909 2903 2897 2890 2883 2876 2869 2862 2856 2848 2842 2836 2831 2825 2819 2815 2810 2805 2801 2797 2795 2791 2787 2784 2782 2779 2776 2776 2776 2776 2776 2779
2954 2952 2949 2946 2943 2939 2935 2929 2924 2917 2910 2904 2898 2892 2885 2878 2872 2865 2858 2852 2846 2840 2833 2827 2822 2817 2812 2807 2803 2800 2797 2794 2791 2787 2784 2782 2779 2778 2776 2772 2771 2771 2773
2949 2947 2944 2940 2937 2933 2929 2924 2918 2911 2904 2898 2892 2887 2880 2874 2868 2861 2855 2848 2842 2836 2830 2824 2819 2814 2809 2805 2800 2796 2793 2790 2787 2785 2783 2780 2776 2773 2772 2771 2770 2772 2774
2943 2941 2938 2934 2931 2927 2923 2918 2912 2905 2899 2892 2886 2880 2874 2869 2863 2857 2851 2845 2839 2834 2828 2822 2817 2812 2807 2803 2798 2794 2790 2786 2784 2782 2780 2778 2775 2774 2772 2771 2771 2771 2772
2938 2936 2932 2929 2925 2922 2917 2912 2906 2900 2893 2887 2881 2875 2870 2863 2858 2852 2847 2841 2836 2831 2825 2820 2814 2809 2805 2801 2796 2792 2789 2785 2782 2779 2776 2774 2772 2772 2772 2771 2771 2769 2770
2932 2929 2926 2923 2920 2916 2911 2906 2901 2894 2888 2882 2876 2870 2865 2859 2854 2848 2843 2838 2833 2828 2822 2817 2812 2807 2802 2798 2794 2790 2787 2784 2781 2778 2776 2774 2772 2772 2771 2770 2769 2769 2769
2926 2924 2921 2918 2914 2910 2905 2900 2894 2888 2882 2876 2871 2865 2860 2854 2849 2843 2838 2833 2828 2824 2819 2814 2810 2805 2800 2796 2792 2788 2785 2782 2779 2776 2774 2772 2771 2770 2769 2768 2769 2768 2768
2921 2918 2915 2912 2908 2904 2899 2894 2889 2882 2876 2871 2865 2860 2855 2849 2843 2838 2832 2828 2823 2819 2815 2811 2806 2802 2798 2794 2789 2786 2783 2779 2776 2774 2772 2770 2769 2768 2767 2767 2767 2766 2766
2914 2912 2909 2906 2902 2898 2893 2888 2882 2876 2871 2865 2859 2854 2849 2843 2837 2831 2826 2822 2817 2813 2810 2806 2802 2798 2794 2791 2787 2783 2780 2777 2774 2772 2770 2768 2767 2765 2765 2764 2764 2764 2763
2908 2906 2903 2900 2896 2892 2887 2881 2876 2870 2864 2859 2853 2848 2842 2837 2830 2825 2819 2815 2811 2807 2803 2800 2797 2794 2790 2787 2783 2780 2777 2774 2771 2768 2766 2764 2763 2762 2761 2760 2759 2759 2759